Flag for Canada Weather past 2 weeks in Dieppe, New Brunswick, Canada

Now
28 °F

Passing clouds.


Feels Like: 22 °F
Forecast: 29 / 51 °F
Wind: 6 mph from Southeast

Location: Moncton


UV Index: 5 (Moderate)

Visibility: 15 mi


Pressure: 30.80 "Hg

Humidity: 51%

Dew point: 12 °F

Location of DieppeLocation

Historic Weather in Dieppe

°F

Dieppe temperature yesterday

Maximum temperature yesterday: 61 °F (at 3:00 AM)
Minimum temperature yesterday: 28 °F (at 10:00 PM)
Average temperature yesterday: 43 °F

Past Weeks' High & Low Weather Summary

 TemperatureHumidityPressure
High66 °F (Apr 15, 5:00 PM)100% (Apr 3, 8:00 AM)30.84 "Hg (Apr 3, 8:00 AM)
Low19 °F (Apr 17, 6:00 AM)23% (Apr 17, 4:00 PM)29.21 "Hg (Apr 9, 4:00 AM)
Average40 °F68%29.96 "Hg
* Reported Apr 2 9:00 PM — Apr 17 9:00 PM, Dieppe, Weather by CustomWeather, © 2014

Note: Actual official high and low records may vary slightly from our data, if they occured in-between our weather recording intervals... More about our weather records

Advertising

Historic Weather Conditions — Data for Previous 24 hours

 ConditionsComfort  
Time TempWeatherWind HumidityBarometerVisibility
9:00 PM
Apr 17
30 °FScattered clouds.8 mph51%30.79 "Hg15 mi
8:00 PM32 °FScattered clouds.8 mph51%30.79 "Hg15 mi
7:00 PM37 °FScattered clouds.9 mph28%30.78 "Hg15 mi
6:00 PM37 °FScattered clouds.8 mph26%30.78 "Hg15 mi
5:00 PM39 °FScattered clouds.7 mph28%30.80 "Hg15 mi
4:00 PM37 °FScattered clouds.6 mph23%30.81 "Hg15 mi
3:00 PM37 °FPassing clouds.5 mph28%30.82 "Hg15 mi
2:00 PM36 °FPassing clouds.5 mph27%30.83 "Hg15 mi
1:00 PM34 °FSunny.10 mph32%30.84 "Hg15 mi
12:00 PM34 °FSunny.5 mph38%30.84 "Hg15 mi
11:00 AM32 °FSunny.6 mph40%30.84 "Hg15 mi
10:00 AM30 °FSunny.9 mph43%30.83 "Hg15 mi
9:00 AM27 °FSunny.7 mph46%30.82 "Hg15 mi
8:00 AM23 °FSunny.3 mph54%30.79 "Hg15 mi
7:00 AM19 °FClear.3 mph58%30.76 "Hg15 mi
6:00 AM19 °FClear.5 mph58%30.74 "Hg15 mi
5:00 AM21 °FClear.6 mph54%30.70 "Hg15 mi
4:00 AM21 °FClear.10 mph49%30.67 "Hg15 mi
3:00 AM23 °FClear.15 mph46%30.64 "Hg15 mi
2:00 AM25 °FClear.13 mph46%30.62 "Hg15 mi
1:00 AM25 °FClear.14 mph50%30.58 "Hg15 mi
12:00 AM27 °FPassing clouds.13 mph54%30.53 "Hg15 mi
11:00 PM
Apr 16
28 °FPassing clouds.15 mph55%30.48 "Hg15 mi
10:00 PM28 °FClear.12 mph55%30.45 "Hg15 mi
Weather by CustomWeather, © 2014

See weather overview